International Falls, MN

10:24 PM CDT on July 20, 2017 (GMT -0500)
Falls International

Weather History for KINL - November, 2012

Change the Weather History Date:

Thursday, November 8, 2012

  Actual Average Record
Temperature  
Mean Temperature 37 °F 30 °F  
Max Temperature 42 °F 38 °F 72 °F (1999)
Min Temperature 32 °F 22 °F -13 °F (2003)
Degree Days  
Heating Degree Days 28 35  
Month to date heating degree days 271 263  
Since 1 July heating degree days 1593 1540  
Cooling Degree Days 0 0  
Month to date cooling degree days 0 0  
Year to date cooling degree days 222 192  
Moisture  
Dew Point 33 °F    
Average Humidity 84    
Maximum Humidity 92    
Minimum Humidity 76    
Precipitation  
Precipitation T in 0.05 in 0.97 in (1918)
Month to date precipitation 0.26 0.42  
Year to date precipitation 23.20 22.45  
Snow  
Snow T in 0.30 in 7.70 in (1950)
Month to date snowfall 0.2 2.4  
Since 1 July snowfall 1.9 4.7  
Since 1 September snowfall 1.9 4.7  
Snow Depth 0.00 in    
Sea Level Pressure  
Sea Level Pressure 29.98 in    
Wind  
Wind Speed 9 mph (NW)    
Max Wind Speed 16 mph    
Max Gust Speed 22 mph    
Visibility 10 miles    
Events Rain , Snow    
T = Trace of Precipitation, MM = Missing Value Source: NWS Daily Summary

Daily Weather History Graph

Daily Weather History Graph

Search for Another Location

Airport or City:

Trip Planner

Search our weather history database for the weather conditions in past years. The results will help you decide how hot, cold, wet, or windy it might be!

Date:

Astronomy

Nov. 08, 2012 Rise Set
Actual Time 7:11 AM CST 4:42 PM CST
Civil Twilight 6:38 AM CST 5:16 PM CST
Nautical Twilight 6:00 AM CST 5:53 PM CST
Astronomical Twilight 5:23 AM CST 6:30 PM CST
Moon 12:39 AM CST (11/8) 1:48 PM CST (11/8)
Length of Visible Light 10h 38m
Length of Day
9h 30m
Waning Crescent, 32% of the Moon is Illuminated
Nov 8
Waning Crescent
Nov 13
New
Nov 20
First Quarter
Nov 28
Full
Dec 6
Last Quarter

Hourly Weather History & Observations

Time (CST) Temp. Windchill Dew Point Humidity Pressure Visibility Wind Dir Wind Speed Gust Speed Precip Events Conditions
12:55 AM 35.6 °F 29.9 °F 32.0 °F 87% 29.91 in 10.0 mi SE 6.9 mph - N/A   Mostly Cloudy
1:55 AM 37.0 °F 29.8 °F 33.1 °F 86% 29.91 in 10.0 mi SE 10.4 mph - N/A   Mostly Cloudy
2:55 AM 37.0 °F 30.4 °F 34.0 °F 89% 29.88 in 10.0 mi SSE 9.2 mph 16.1 mph N/A   Mostly Cloudy
3:55 AM 37.9 °F 33.5 °F 34.0 °F 86% 29.86 in 10.0 mi Variable 5.8 mph - N/A   Mostly Cloudy
4:55 AM 37.9 °F 31.5 °F 34.0 °F 86% 29.85 in 10.0 mi South 9.2 mph - 0.00 in Rain Light Rain
5:55 AM 37.9 °F 33.5 °F 34.0 °F 86% 29.84 in 10.0 mi South 5.8 mph - 0.00 in   Mostly Cloudy
6:55 AM 37.9 °F 32.7 °F 33.1 °F 83% 29.85 in 10.0 mi SSW 6.9 mph - N/A   Overcast
7:55 AM 37.9 °F 32.1 °F 33.1 °F 83% 29.85 in 10.0 mi South 8.1 mph - N/A   Overcast
8:55 AM 39.0 °F 32.3 °F 34.0 °F 82% 29.87 in 10.0 mi SSW 10.4 mph - N/A   Overcast
9:55 AM 39.9 °F 33.4 °F 35.1 °F 83% 29.87 in 10.0 mi SW 10.4 mph 17.3 mph N/A   Mostly Cloudy
10:06 AM 41.0 °F 35.2 °F 35.6 °F 81% 29.83 in 10.0 mi SW 9.2 mph - N/A   Mostly Cloudy
10:55 AM 42.1 °F 37.1 °F 35.1 °F 76% 29.88 in 10.0 mi WSW 8.1 mph 17.3 mph N/A   Overcast
11:55 AM 41.0 °F 33.9 °F 36.0 °F 82% 29.90 in 10.0 mi West 12.7 mph - N/A   Overcast
12:25 PM 41.0 °F 35.8 °F 35.6 °F 81% 29.86 in 10.0 mi West 8.1 mph - N/A   Overcast
12:55 PM 41.0 °F 34.7 °F 36.0 °F 82% 29.91 in 10.0 mi WNW 10.4 mph - N/A   Overcast
1:52 PM 41.0 °F 34.3 °F 37.4 °F 87% 29.89 in 10.0 mi WNW 11.5 mph - N/A   Overcast
1:55 PM 41.0 °F 34.7 °F 37.0 °F 86% 29.93 in 10.0 mi WNW 10.4 mph - N/A   Overcast
2:55 PM 39.9 °F 32.9 °F 37.9 °F 93% 29.97 in 7.0 mi NW 11.5 mph - N/A   Overcast
3:33 PM 39.2 °F 33.0 °F 37.4 °F 93% 29.95 in 10.0 mi NNW 9.2 mph - N/A   Overcast
3:55 PM 39.9 °F 33.9 °F 36.0 °F 86% 30.00 in 10.0 mi NNW 9.2 mph - N/A   Overcast
4:21 PM 39.2 °F 33.0 °F 35.6 °F 87% 29.98 in 10.0 mi NNW 9.2 mph - N/A   Overcast
4:30 PM 39.2 °F 31.6 °F 35.6 °F 87% 29.98 in 10.0 mi North 12.7 mph 18.4 mph N/A   Overcast
4:55 PM 39.0 °F 30.3 °F 34.0 °F 82% 30.04 in 10.0 mi NNW 16.1 mph 21.9 mph N/A   Overcast
5:55 PM 37.9 °F 29.6 °F 32.0 °F 79% 30.08 in 10.0 mi North 13.8 mph - N/A   Overcast
6:55 PM 37.0 °F 31.0 °F 30.0 °F 76% 30.10 in 10.0 mi North 8.1 mph - 0.00 in   Overcast
7:55 PM 35.1 °F 28.6 °F 30.0 °F 82% 30.12 in 10.0 mi North 8.1 mph - 0.00 in   Overcast
8:55 PM 34.0 °F 27.2 °F 28.9 °F 82% 30.14 in 10.0 mi North 8.1 mph - N/A   Mostly Cloudy
9:17 PM 33.8 °F 28.6 °F 28.4 °F 81% 30.09 in 10.0 mi North 5.8 mph - N/A   Partly Cloudy
9:55 PM 34.0 °F 27.2 °F 28.9 °F 82% 30.16 in 10.0 mi North 8.1 mph - N/A   Mostly Cloudy
10:36 PM 32.0 °F 26.4 °F 28.4 °F 87% 30.12 in 10.0 mi North 5.8 mph - N/A   Mostly Cloudy
10:43 PM 33.8 °F 28.6 °F 28.4 °F 81% 30.12 in 9.0 mi North 5.8 mph - N/A   Mostly Cloudy
10:55 PM 33.1 °F 26.1 °F 30.0 °F 89% 30.16 in 3.0 mi North 8.1 mph - 0.00 in Snow Light Snow
11:52 PM 32.0 °F 24.8 °F 28.4 °F 87% 30.14 in 10.0 mi North 8.1 mph - 0.00 in   Mostly Cloudy
11:55 PM 32.0 °F 25.6 °F 28.9 °F 88% 30.19 in 10.0 mi North 6.9 mph - 0.00 in   Mostly Cloudy